Content
SEND FEEDBACK

Daily
Averages
Monthly
Summary
United States of America

RAPID CITY, SOUTH DAKOTA


Home > North America > United States > South Dakota
Elevation: 963 meters     Latitude: 44 03N     Longitude: 103 04W

WEATHER
 
SELECT A DAY
Number of Records: 200,306;   Date Range: 1/1/95 - 7/26/14
 
SHARE

PRINT THIS DATA

[ ← Previous Day ]
WEATHER ALMANAC - 13 FEBRUARY, 2013
[ Next Day → ]
[ °F ]   °C
Weather ElementAverageHighLow
Temperature3 °C9.4 °C (12:52 pm)-2.2 °C (2:52 am)
Dewpoint-5.3 °C-2.8 °C (1:52 pm)-7.8 °C (2:52 am)
Humidity56.5 %78 % (7:52 pm)33 % (12:52 pm)
Barometer1011.2 hPa1015.6 hPa (11:52 pm)1008.1 hPa (12:52 pm)
Wind Speed26.1 km/h50.1 km/h (10:52 am)
Wind Gust62.9 km/h (10:52 am)
Weather ElementAverage
Visibility16.1 km
Wind DirectionWNW (298.7 °)

Weather ElementTotal
Precipitation---
Heating Degree Days14.8 (Base 18.3)
Averaged from 23 records on 13 February, 2013
WEATHER CONDITIONS BREAKOUT
WIND DIRECTION BREAKOUT
WEATHER BY HOUR - 13 FEBRUARY, 2013
[ °F ]   °C
Local TimeTemperatureDewpointHumidityBarometerVisibilityWind DirectionWind SpeedGust SpeedPrecipitationEventsConditions
1:52 AM-1.1 °C-7.2 °C64 %1012.2 hPa16.1 kmWNW (290°)11.1 km/hClear
2:52 AM-2.2 °C-7.8 °C66 %1011.5 hPa16.1 kmWest (280°)9.3 km/hClear
3:52 AM-2.2 °C-7.8 °C66 %1011.2 hPa16.1 kmSW (230°)5.6 km/hClear
4:52 AM-1.7 °C-7.2 °C67 %1011.2 hPa16.1 kmWSW (240°)5.6 km/hClear
5:52 AM-1.7 °C-6.7 °C69 %1010.5 hPa16.1 kmSW (220°)9.3 km/hClear
6:52 AM0 °C-6.1 °C64 %1010.2 hPa16.1 kmWSW (250°)5.6 km/hOvercast
7:52 AM1.1 °C-5 °C64 %1010.2 hPa16.1 kmWest (260°)5.6 km/hOvercast
8:52 AM5.6 °C-4.4 °C49 %1009.5 hPa16.1 kmWNW (290°)14.8 km/hOvercast
9:52 AM7.8 °C-5.6 °C39 %1008.8 hPa16.1 kmNNW (330°)44.4 km/h57.5 km/hMostly Cloudy
10:52 AM8.9 °C-5.6 °C36 %1008.5 hPa16.1 kmNNW (330°)50.1 km/h62.9 km/hScattered Clouds
11:52 AM8.9 °C-4.4 °C39 %1008.5 hPa16.1 kmNW (320°)48.1 km/h57.5 km/hOvercast
12:52 PM9.4 °C-6.1 °C33 %1008.1 hPa16.1 kmNW (310°)42.6 km/h62.9 km/hPartly Cloudy
1:52 PM8.9 °C-2.8 °C44 %1008.5 hPa16.1 kmNW (310°)50.1 km/h62.9 km/hPartly Cloudy
2:52 PM6.7 °C-3.3 °C49 %1009.8 hPa16.1 kmNW (320°)33.3 km/h48.1 km/hPartly Cloudy
3:52 PM6.1 °C-4.4 °C47 %1010.5 hPa16.1 kmNW (320°)40.7 km/h50.1 km/hMostly Cloudy
4:52 PM5 °C-4.4 °C51 %1011.5 hPa16.1 kmNW (310°)35.2 km/h51.8 km/hClear
5:52 PM3.3 °C-3.9 °C60 %1012.5 hPa16.1 kmNW (320°)22.2 km/hMostly Cloudy
6:52 PM1.1 °C-2.8 °C75 %1013.9 hPa16.1 kmNorth (360°)31.5 km/h51.8 km/hMostly Cloudy
7:52 PM0.6 °C-2.8 °C78 %1013.9 hPa16.1 kmNW (310°)16.7 km/hClear
8:52 PM2.8 °C-3.9 °C62 %1013.9 hPa16.1 kmNW (320°)29.6 km/h40.7 km/hClear
9:52 PM2.2 °C-5.6 °C57 %1013.9 hPa16.1 kmNW (320°)40.7 km/h51.8 km/hClear
10:52 PM0 °C-6.1 °C64 %1015.2 hPa16.1 kmNW (320°)20.4 km/hClear
11:52 PM0 °C-7.8 °C56 %1015.6 hPa16.1 kmNW (310°)27.8 km/hClear
Hourly data recorded from KRAP, located 0 kilometers away from Rapid City, South Dakota







STORIES FROM OUR PARTNERS